User: anonymous   Login
Location: ????????
(55.0097°N, 38.5678°E)
Time: 15:50:07
(UTC+00:00)
Language:

CZ-6A DEB - Orbit

View from above orbital plane
View from above orbital plane
View from above satellite
View from above satellite

Ground track
Ground track

The orbit data is extracted from the following two-line orbital elements,

1 54318U 22151BM  24251.92909209  .00006324  00000-0  36010-2 0  9993
2 54318  98.8251 251.7391 0053680  11.7161 348.5245 14.09364528 93143
Epoch (UTC): 07 September 2024 22:17:53
Eccentricity: 0.0053680
inclination: 98.8251°
perigee height: 822 km
apogee height: 900 km
right ascension of ascending node: 251.7391°
argument of perigee: 11.7161°
revolutions per day: 14.09364528
mean anomaly at epoch: 348.5245°
orbit number at epoch: 9314

The dashed part of the orbit path shows where the satellite is in the earth's shadow,  

DLR